When you browse on this site, cookies collect data to enhance your experience and personalize the content and advertising you see.
Visit our Privacy Policy to learn more. By continuing to use the site, you agree to this use of cookies and data.
  • în România
  • Lista ţărilor
  • Pe 7 zile
  • Temperatura apei
  • Meteo pe hartă
  • Widget-uri
  • user-avatar
    Intrare

    Meteo pe oră la Mingora

    Astăzi, 28 Mai, Joi

    Timp Temperatura Precipitaţii Vânt Presiune Umiditate
    00:00 +26°C° 0 mm 3 m/s 671 mmHg 28%
    01:00 +26°C° 0 mm 3 m/s 671 mmHg 28%
    02:00 +25°C° 0 mm 3 m/s 670 mmHg 27%
    03:00 +25°C° 0 mm 2 m/s 670 mmHg 27%
    04:00 +25°C° 0 mm 2 m/s 670 mmHg 27%
    05:00 +24°C° 0 mm 2 m/s 670 mmHg 27%
    06:00 +27°C° 0 mm 2 m/s 671 mmHg 27%
    07:00 +29°C° 0 mm 1 m/s 671 mmHg 26%
    08:00 +31°C° 0 mm 1 m/s 672 mmHg 25%
    09:00 +32°C° 0 mm 1 m/s 672 mmHg 23%
    10:00 +34°C° 0 mm 2 m/s 672 mmHg 22%
    11:00 +35°C° 0 mm 2 m/s 673 mmHg 21%
    12:00 +36°C° 0 mm 2 m/s 672 mmHg 21%
    13:00 +36°C° 0 mm 2 m/s 672 mmHg 20%
    14:00 +36°C° 0 mm 2 m/s 672 mmHg 20%
    15:00 +35°C° 0 mm 3 m/s 671 mmHg 24%
    16:00 +34°C° 0 mm 3 m/s 671 mmHg 28%
    17:00 +33°C° 0 mm 3 m/s 671 mmHg 32%
    18:00 +30°C° 0 mm 3 m/s 670 mmHg 36%
    19:00 +28°C° 0 mm 3 m/s 670 mmHg 40%
    20:00 +26°C° 0 mm 3 m/s 670 mmHg 43%
    21:00 +25°C° 0 mm 3 m/s 670 mmHg 41%
    22:00 +25°C° 0 mm 2 m/s 670 mmHg 40%
    23:00 +25°C° 0 mm 2 m/s 670 mmHg 38%

    Mâine, 29 Mai, Vineri

    Timp Temperatura Precipitaţii Vânt Presiune Umiditate
    00:00 +24°C° 0.1 mm 2 m/s 670 mmHg 39%
    01:00 +24°C° 0.1 mm 2 m/s 670 mmHg 41%
    02:00 +24°C° 0.1 mm 2 m/s 670 mmHg 42%
    03:00 +23°C° 0 mm 2 m/s 670 mmHg 42%
    04:00 +23°C° 0 mm 2 m/s 670 mmHg 43%
    05:00 +23°C° 0 mm 2 m/s 670 mmHg 43%
    06:00 +25°C° 0.2 mm 1 m/s 671 mmHg 40%
    07:00 +27°C° 0.2 mm 1 m/s 671 mmHg 38%
    08:00 +29°C° 0.2 mm 1 m/s 672 mmHg 35%
    09:00 +30°C° 0.1 mm 1 m/s 672 mmHg 33%
    10:00 +31°C° 0.1 mm 2 m/s 673 mmHg 32%
    11:00 +32°C° 0.1 mm 2 m/s 673 mmHg 30%
    12:00 +34°C° 0.1 mm 2 m/s 673 mmHg 30%
    13:00 +34°C° 0.1 mm 3 m/s 672 mmHg 29%
    14:00 +34°C° 0.1 mm 3 m/s 672 mmHg 29%
    15:00 +34°C° 0.1 mm 3 m/s 672 mmHg 32%
    16:00 +33°C° 0.1 mm 3 m/s 672 mmHg 35%
    17:00 +31°C° 0.1 mm 2 m/s 672 mmHg 38%
    18:00 +28°C° 0.4 mm 3 m/s 672 mmHg 46%
    19:00 +26°C° 0.4 mm 3 m/s 672 mmHg 55%
    20:00 +22°C° 0.4 mm 3 m/s 671 mmHg 64%
    21:00 +22°C° 0.2 mm 3 m/s 671 mmHg 62%
    22:00 +22°C° 0.2 mm 3 m/s 671 mmHg 59%
    23:00 +22°C° 0.2 mm 3 m/s 671 mmHg 57%

    Poimâine, 30 Mai, Sâmbătă

    Timp Temperatura Precipitaţii Vânt Presiune Umiditate
    00:00 +22°C° 0.2 mm 3 m/s 671 mmHg 57%
    01:00 +23°C° 0.2 mm 2 m/s 671 mmHg 56%
    02:00 +23°C° 0.2 mm 2 m/s 671 mmHg 56%
    03:00 +23°C° 0.4 mm 2 m/s 671 mmHg 57%
    04:00 +21°C° 0.4 mm 2 m/s 671 mmHg 58%
    05:00 +21°C° 0.4 mm 2 m/s 671 mmHg 59%
    06:00 +23°C° 0.3 mm 2 m/s 672 mmHg 57%
    07:00 +25°C° 0.3 mm 2 m/s 672 mmHg 54%
    08:00 +26°C° 0.3 mm 2 m/s 673 mmHg 51%
    09:00 +27°C° 0.1 mm 2 m/s 673 mmHg 48%
    10:00 +28°C° 0.1 mm 2 m/s 673 mmHg 45%
    11:00 +29°C° 0.1 mm 2 m/s 674 mmHg 42%
    12:00 +30°C° 0.1 mm 3 m/s 674 mmHg 41%
    13:00 +30°C° 0.1 mm 3 m/s 674 mmHg 40%
    14:00 +30°C° 0.1 mm 3 m/s 674 mmHg 40%
    15:00 +30°C° 0.2 mm 2 m/s 674 mmHg 41%
    16:00 +29°C° 0.2 mm 2 m/s 673 mmHg 42%
    17:00 +29°C° 0.2 mm 1 m/s 673 mmHg 44%
    18:00 +27°C° 0.1 mm 2 m/s 673 mmHg 49%
    19:00 +26°C° 0.1 mm 2 m/s 673 mmHg 54%
    20:00 +24°C° 0.1 mm 2 m/s 673 mmHg 59%
    21:00 +24°C° 0 mm 2 m/s 673 mmHg 59%
    22:00 +23°C° 0 mm 2 m/s 673 mmHg 58%
    23:00 +23°C° 0 mm 2 m/s 673 mmHg 57%

    31 Mai, Duminică

    Timp Temperatura Precipitaţii Vânt Presiune Umiditate
    00:00 +23°C° 0 mm 2 m/s 673 mmHg 56%
    01:00 +21°C° 0 mm 2 m/s 672 mmHg 55%
    02:00 +22°C° 0 mm 1 m/s 672 mmHg 55%
    03:00 +22°C° 0 mm 1 m/s 672 mmHg 55%
    04:00 +22°C° 0 mm 1 m/s 672 mmHg 56%
    05:00 +22°C° 0 mm 1 m/s 672 mmHg 56%
    06:00 +23°C° 0 mm 1 m/s 673 mmHg 52%
    07:00 +25°C° 0 mm 1 m/s 673 mmHg 48%
    08:00 +25°C° 0 mm 0 m/s 674 mmHg 44%
    09:00 +28°C° 0 mm 1 m/s 674 mmHg 43%
    10:00 +29°C° 0 mm 2 m/s 674 mmHg 41%
    11:00 +30°C° 0 mm 2 m/s 674 mmHg 39%
    12:00 +30°C° 0.2 mm 3 m/s 674 mmHg 40%
    13:00 +30°C° 0.2 mm 3 m/s 674 mmHg 42%
    14:00 +30°C° 0.2 mm 4 m/s 673 mmHg 43%
    15:00 +29°C° 1.2 mm 4 m/s 673 mmHg 48%
    16:00 +29°C° 1.2 mm 4 m/s 672 mmHg 52%
    17:00 +28°C° 1.2 mm 3 m/s 672 mmHg 57%
    18:00 +26°C° 1.8 mm 3 m/s 672 mmHg 64%
    19:00 +24°C° 1.8 mm 2 m/s 672 mmHg 71%
    20:00 +23°C° 1.8 mm 1 m/s 672 mmHg 79%
    21:00 +23°C° 0.3 mm 1 m/s 672 mmHg 79%
    22:00 +22°C° 0.3 mm 1 m/s 672 mmHg 79%
    23:00 +22°C° 0.3 mm 1 m/s 673 mmHg 79%

    1 Iunie, Luni

    Timp Temperatura Precipitaţii Vânt Presiune Umiditate
    00:00 +22°C° 0.3 mm 1 m/s 673 mmHg 79%
    01:00 +22°C° 0.3 mm 1 m/s 672 mmHg 79%
    02:00 +22°C° 0.3 mm 1 m/s 672 mmHg 80%
    03:00 +22°C° 0.2 mm 1 m/s 672 mmHg 80%
    04:00 +22°C° 0.2 mm 1 m/s 672 mmHg 80%
    05:00 +20°C° 0.2 mm 0 m/s 672 mmHg 80%
    06:00 +23°C° 0.3 mm 1 m/s 673 mmHg 76%
    07:00 +24°C° 0.3 mm 1 m/s 673 mmHg 72%
    08:00 +25°C° 0.3 mm 1 m/s 673 mmHg 68%
    09:00 +25°C° 0.9 mm 1 m/s 673 mmHg 65%
    10:00 +26°C° 0.9 mm 2 m/s 673 mmHg 63%
    11:00 +27°C° 0.9 mm 2 m/s 673 mmHg 60%
    12:00 +28°C° 0.9 mm 2 m/s 673 mmHg 59%
    13:00 +28°C° 0.9 mm 2 m/s 673 mmHg 57%
    14:00 +28°C° 0.9 mm 2 m/s 673 mmHg 56%
    15:00 +28°C° 0.3 mm 2 m/s 673 mmHg 55%
    16:00 +29°C° 0.3 mm 1 m/s 672 mmHg 54%
    17:00 +29°C° 0.3 mm 1 m/s 672 mmHg 54%
    18:00 +27°C° 0.1 mm 1 m/s 672 mmHg 58%
    19:00 +26°C° 0.1 mm 1 m/s 672 mmHg 62%
    20:00 +25°C° 0.1 mm 1 m/s 672 mmHg 67%
    21:00 +25°C° 0.2 mm 1 m/s 672 mmHg 68%
    22:00 +24°C° 0.2 mm 1 m/s 672 mmHg 69%
    23:00 +24°C° 0.2 mm 2 m/s 672 mmHg 70%

    2 Iunie, Marţi

    Timp Temperatura Precipitaţii Vânt Presiune Umiditate
    00:00 +23°C° 0.1 mm 2 m/s 672 mmHg 70%
    01:00 +23°C° 0.1 mm 2 m/s 672 mmHg 69%
    02:00 +23°C° 0.1 mm 2 m/s 672 mmHg 69%
    03:00 +23°C° 0 mm 2 m/s 672 mmHg 69%
    04:00 +21°C° 0 mm 2 m/s 672 mmHg 68%
    05:00 +21°C° 0 mm 2 m/s 672 mmHg 68%
    06:00 +24°C° 0 mm 1 m/s 672 mmHg 63%
    07:00 +26°C° 0 mm 1 m/s 673 mmHg 58%
    08:00 +28°C° 0 mm 1 m/s 673 mmHg 52%
    09:00 +29°C° 0.2 mm 1 m/s 673 mmHg 50%
    10:00 +30°C° 0.2 mm 2 m/s 673 mmHg 48%
    11:00 +31°C° 0.2 mm 2 m/s 673 mmHg 45%
    12:00 +31°C° 0.7 mm 2 m/s 673 mmHg 45%
    13:00 +31°C° 0.7 mm 2 m/s 673 mmHg 44%
    14:00 +31°C° 0.7 mm 2 m/s 672 mmHg 43%
    15:00 +31°C° 0.4 mm 2 m/s 672 mmHg 44%
    16:00 +31°C° 0.4 mm 2 m/s 672 mmHg 44%
    17:00 +31°C° 0.4 mm 1 m/s 672 mmHg 44%
    18:00 +30°C° 0.2 mm 1 m/s 671 mmHg 49%
    19:00 +28°C° 0.2 mm 1 m/s 671 mmHg 54%
    20:00 +27°C° 0.2 mm 1 m/s 670 mmHg 59%
    21:00 +26°C° 0 mm 1 m/s 671 mmHg 59%
    22:00 +25°C° 0 mm 2 m/s 671 mmHg 59%
    23:00 +25°C° 0 mm 2 m/s 671 mmHg 60%
    Arată mai mult